Torna al catalogo

PROBA-3 OSC

AttivoScienzaHEO
NORAD 62258·PAYLOAD·🇪🇺 EU

Lanciato Dec 5, 2024 da Satish Dhawan Space Centre

Loading…

Prossimi Passaggi (prossime 24 ore)

TLE

AggiornatoSource: Space-Track

Epoca: Sep 11, 2026, 07:24 UTC

1 62258U 24233C   26254.30850200 -.00000080  00000-0  00000-0 0  9993
2 62258  59.7761  90.3075 7995214 207.9102  63.0560  1.22078118  7863

Traccia PROBA-3 OSC in tempo reale con AllMySat

Download on the App Store